Location: Cedar Ridge
(38.0658°N, 120.2769°W)
Time: 22:05:23
(UTC+00:00)

Cosmos 2333 Rocket - Pass Details

Date: 10 September 2024
Orbit: 840 x 862 km, 70.8° (Epoch: 12 October)

Event Time Altitude Azimuth Distance (km) Brightness Sun altitude
Rises 12:18:21 0° 334° (NNW) 3,433 5.3 -16.3°
Reaches altitude 10° 12:20:50 10° 332° (NNW) 2,490 4.6 -15.8°
Maximum altitude 12:26:31 68° 251° (WSW) 911 2.1 -14.8°
Drops below altitude 10° 12:32:07 10° 169° (S) 2,459 4.6 -13.7°
Sets 12:34:33 0° 167° (SSE) 3,387 5.3 -13.3°
